TimeCST,TemperatureF,Dew PointF,Humidity,Sea Level PressureIn,VisibilityMPH,Wind Direction,Wind SpeedMPH,Gust SpeedMPH,PrecipitationIn,Events,Conditions,WindDirDegrees,DateUTC
12:15 AM,25.3,19.2,78,30.20,10.0,NNW,6.9,-,N/A,,Unknown,340,2013-03-02 06:15:00
12:35 AM,25.5,18.5,75,30.20,10.0,North,8.1,-,N/A,,Unknown,350,2013-03-02 06:35:00
12:55 AM,25.5,18.0,73,30.20,10.0,NNW,12.7,-,N/A,,Unknown,340,2013-03-02 06:55:00
1:15 AM,25.5,17.2,71,30.20,10.0,North,9.2,-,N/A,,Unknown,360,2013-03-02 07:15:00
1:35 AM,25.3,16.9,70,30.20,10.0,North,10.4,-,N/A,,Unknown,350,2013-03-02 07:35:00
1:55 AM,25.3,16.7,70,30.20,10.0,North,10.4,17.3,N/A,,Unknown,350,2013-03-02 07:55:00
2:15 AM,25.0,16.7,71,30.19,10.0,NNW,10.4,-,N/A,,Unknown,340,2013-03-02 08:15:00
2:35 AM,25.0,16.7,71,30.19,10.0,North,8.1,-,N/A,,Unknown,360,2013-03-02 08:35:00
2:55 AM,24.8,16.7,71,30.19,10.0,NNW,10.4,-,N/A,,Unknown,340,2013-03-02 08:55:00
3:15 AM,24.8,17.4,74,30.18,10.0,North,10.4,-,N/A,,Unknown,350,2013-03-02 09:15:00
3:35 AM,24.8,17.2,73,30.18,10.0,NNW,10.4,-,N/A,,Unknown,340,2013-03-02 09:35:00
3:55 AM,24.6,17.4,74,30.18,10.0,NNW,10.4,-,N/A,,Unknown,340,2013-03-02 09:55:00
4:15 AM,24.4,17.4,75,30.18,10.0,NNW,10.4,-,N/A,,Unknown,340,2013-03-02 10:15:00
4:35 AM,24.4,17.4,75,30.18,10.0,NNW,9.2,-,N/A,,Unknown,340,2013-03-02 10:35:00
4:55 AM,24.4,17.2,74,30.19,10.0,NNW,8.1,-,N/A,,Unknown,330,2013-03-02 10:55:00
5:15 AM,24.3,17.4,75,30.19,10.0,NNW,10.4,-,N/A,,Unknown,330,2013-03-02 11:15:00
5:35 AM,23.9,17.2,76,30.19,10.0,NNW,11.5,-,N/A,,Unknown,340,2013-03-02 11:35:00
5:55 AM,23.7,16.7,75,30.20,10.0,NNW,10.4,-,N/A,,Unknown,340,2013-03-02 11:55:00
6:15 AM,23.5,16.3,74,30.20,10.0,North,10.4,-,N/A,,Unknown,360,2013-03-02 12:15:00
6:35 AM,23.0,15.8,74,30.20,10.0,North,8.1,-,N/A,,Unknown,350,2013-03-02 12:35:00
6:55 AM,23.0,14.9,71,30.21,10.0,North,9.2,-,N/A,,Unknown,350,2013-03-02 12:55:00
7:15 AM,22.6,14.2,70,30.21,10.0,North,8.1,-,N/A,,Unknown,350,2013-03-02 13:15:00
7:35 AM,21.9,14.5,73,30.22,10.0,NNW,8.1,-,N/A,,Unknown,330,2013-03-02 13:35:00
7:55 AM,21.0,13.6,73,30.23,10.0,NW,8.1,-,N/A,,Unknown,320,2013-03-02 13:55:00
8:15 AM,20.1,12.2,71,30.23,10.0,NNW,8.1,-,N/A,,Unknown,330,2013-03-02 14:15:00
8:35 AM,20.1,12.6,73,30.22,10.0,NNW,9.2,-,N/A,,Unknown,330,2013-03-02 14:35:00
8:55 AM,21.0,13.1,71,30.22,10.0,NNW,9.2,-,N/A,,Unknown,340,2013-03-02 14:55:00
9:15 AM,22.1,13.5,69,30.22,10.0,NNW,8.1,-,N/A,,Unknown,340,2013-03-02 15:15:00
9:35 AM,22.6,13.6,68,30.22,10.0,North,6.9,-,N/A,,Unknown,350,2013-03-02 15:35:00
9:55 AM,23.2,14.4,69,30.23,10.0,NNW,6.9,-,N/A,,Unknown,330,2013-03-02 15:55:00
10:15 AM,23.7,14.4,67,30.22,10.0,North,8.1,-,N/A,,Unknown,350,2013-03-02 16:15:00
10:35 AM,24.6,14.7,66,30.23,10.0,NNW,9.2,-,N/A,,Unknown,330,2013-03-02 16:35:00
10:55 AM,25.5,15.1,65,30.23,10.0,North,6.9,-,N/A,,Unknown,360,2013-03-02 16:55:00
11:15 AM,25.5,15.1,65,30.23,10.0,NNW,8.1,-,N/A,,Unknown,330,2013-03-02 17:15:00
11:35 AM,25.7,15.3,65,30.23,10.0,North,5.8,-,N/A,,Unknown,360,2013-03-02 17:35:00
11:55 AM,25.5,14.9,64,30.23,10.0,NNW,8.1,-,N/A,,Unknown,340,2013-03-02 17:55:00
12:15 PM,25.7,15.3,65,30.22,10.0,North,8.1,-,N/A,,Unknown,350,2013-03-02 18:15:00
12:35 PM,25.5,15.3,65,30.22,10.0,NW,10.4,-,N/A,,Unknown,310,2013-03-02 18:35:00
12:55 PM,25.9,15.1,64,30.21,10.0,NNW,9.2,-,N/A,,Unknown,340,2013-03-02 18:55:00
1:15 PM,26.2,15.4,64,30.21,10.0,NW,8.1,-,N/A,,Unknown,320,2013-03-02 19:15:00
1:35 PM,26.2,15.6,64,30.21,10.0,NW,9.2,-,N/A,,Unknown,310,2013-03-02 19:35:00
1:55 PM,26.6,15.8,64,30.20,10.0,NNW,9.2,-,N/A,,Unknown,330,2013-03-02 19:55:00
2:15 PM,26.2,14.2,60,30.20,10.0,North,10.4,-,N/A,,Unknown,350,2013-03-02 20:15:00
2:35 PM,26.4,14.7,61,30.20,10.0,NNW,10.4,-,N/A,,Unknown,330,2013-03-02 20:35:00
2:55 PM,26.4,14.2,60,30.20,10.0,NNW,10.4,-,N/A,,Unknown,330,2013-03-02 20:55:00
3:15 PM,26.2,13.5,59,30.20,10.0,NNW,9.2,-,N/A,,Unknown,330,2013-03-02 21:15:00
3:35 PM,26.4,13.5,58,30.19,10.0,NNW,6.9,-,N/A,,Unknown,340,2013-03-02 21:35:00
3:55 PM,26.6,12.6,55,30.19,10.0,North,6.9,-,N/A,,Unknown,350,2013-03-02 21:55:00
4:15 PM,26.6,12.0,54,30.19,10.0,North,6.9,-,N/A,,Unknown,360,2013-03-02 22:15:00
4:35 PM,26.4,11.8,54,30.20,10.0,North,5.8,-,N/A,,Unknown,360,2013-03-02 22:35:00
4:55 PM,25.9,11.8,55,30.20,10.0,NNW,8.1,-,N/A,,Unknown,330,2013-03-02 22:55:00
5:15 PM,25.2,10.0,53,30.21,10.0,NNW,5.8,-,N/A,,Unknown,330,2013-03-02 23:15:00
5:35 PM,24.3,11.1,57,30.21,10.0,NNW,8.1,-,N/A,,Unknown,340,2013-03-02 23:35:00
5:55 PM,23.5,10.4,57,30.21,10.0,NNW,4.6,-,N/A,,Unknown,340,2013-03-02 23:55:00
6:15 PM,22.8,10.4,59,30.21,10.0,NNW,4.6,-,N/A,,Unknown,330,2013-03-03 00:15:00
6:35 PM,21.9,10.4,61,30.21,10.0,NW,3.5,-,N/A,,Unknown,320,2013-03-03 00:35:00
6:55 PM,21.7,11.3,64,30.22,10.0,NNW,3.5,-,N/A,,Unknown,330,2013-03-03 00:55:00
7:15 PM,20.1,10.0,65,30.21,10.0,NNW,3.5,-,N/A,,Unknown,340,2013-03-03 01:15:00
7:35 PM,19.8,10.4,67,30.21,10.0,North,3.5,-,N/A,,Unknown,350,2013-03-03 01:35:00
7:55 PM,18.0,9.7,70,30.21,10.0,Calm,Calm,-,N/A,,Unknown,0,2013-03-03 01:55:00
8:15 PM,16.3,9.1,73,30.21,10.0,Calm,Calm,-,N/A,,Unknown,0,2013-03-03 02:15:00
8:35 PM,15.8,9.3,76,30.21,10.0,Calm,Calm,-,N/A,,Unknown,0,2013-03-03 02:35:00
8:55 PM,13.6,9.7,84,30.21,10.0,Calm,Calm,-,N/A,,Unknown,0,2013-03-03 02:55:00
9:15 PM,12.9,7.5,79,30.22,10.0,Calm,Calm,-,N/A,,Unknown,0,2013-03-03 03:15:00
9:35 PM,13.3,8.4,81,30.21,10.0,Calm,Calm,-,N/A,,Unknown,0,2013-03-03 03:35:00
9:55 PM,10.9,7.0,84,30.21,10.0,Calm,Calm,-,N/A,,Unknown,0,2013-03-03 03:55:00
10:15 PM,11.8,7.3,82,30.21,10.0,Calm,Calm,-,N/A,,Unknown,0,2013-03-03 04:15:00
10:35 PM,10.2,6.4,85,30.20,10.0,Calm,Calm,-,N/A,,Unknown,0,2013-03-03 04:35:00
10:55 PM,10.6,6.6,84,30.20,10.0,Calm,Calm,-,N/A,,Unknown,0,2013-03-03 04:55:00
11:15 PM,8.1,4.3,85,30.19,10.0,Calm,Calm,-,N/A,,Unknown,0,2013-03-03 05:15:00
11:35 PM,8.8,5.7,87,30.19,10.0,Calm,Calm,-,N/A,,Unknown,0,2013-03-03 05:35:00
11:55 PM,8.4,5.7,89,30.19,10.0,Calm,Calm,-,N/A,,Unknown,0,2013-03-03 05:55:00